Location: Krasnoyarskiy Pitomnik
(51.1333°N, 71.6167°E)
Time: 10:01:59
(UTC+00:00)

COSMO-SKYMED 1 - Pass Details

Date: 22 October 2021
Orbit: 621 x 623 km, 97.9° (Epoch: 06 December)

Event Time Altitude Azimuth Distance (km) Brightness Sun altitude
Rises 23:21:52 0° 136° (SE) 2,897 6.4 -23.8°
Reaches altitude 10° 23:24:14 10° 126° (SE) 1,995 5.7 -23.5°
Maximum altitude 23:28:02 31° 65° (ENE) 1,109 4.4 -22.9°
Drops below altitude 10° 23:31:52 10° 3° (N) 2,008 5.3 -22.3°
Sets 23:34:15 0° 354° (N) 2,920 6.1 -21.9°
